Simultaneous Nadir Overpasses (SNOs) Predictions

Prediction of SNOs between AQUA and NPP Satellite Orbit:

Table of predicted SNOs for the next 14.0 days since TLE Epoch: 7/16/2016
Index Date (AQUA) Time (AQUA) Lat,Lon (AQUA) SZA (AQUA ) Date (NPP) Time (NPP) Lat,Lon (NPP) SZA (NPP ) Distance(km) Time Diff (sec)
1 07/16/2016 13:16:02 -74.19, 35.23 101.16 07/16/2016 13:15:23 -74.19, 35.22 101.12 0.33 39
2 07/16/2016 14:05:01 75.52,-153.71 77.33 07/16/2016 14:05:39 75.52,-153.74 77.31 0.79 38
3 07/19/2016 05:32:19 -74.73, 152.42 101.30 07/19/2016 05:32:06 -74.73, 152.42 101.29 0.15 13
4 07/19/2016 06:21:20 75.94, -36.60 77.32 07/19/2016 06:22:24 75.94, -36.60 77.26 0.22 64
5 07/21/2016 20:59:34 73.93, 98.76 80.11 07/21/2016 20:58:30 73.94, 98.84 80.15 2.55 64
6 07/21/2016 21:48:36 -75.25, -90.33 101.39 07/21/2016 21:48:49 -75.26, -90.29 101.41 1.16 13
7 07/24/2016 13:15:58 74.09,-144.98 80.48 07/24/2016 13:15:21 74.08,-145.03 80.52 1.39 37
8 07/24/2016 14:05:01 -75.36, 25.86 100.97 07/24/2016 14:05:41 -75.35, 25.77 100.98 2.77 40
9 07/27/2016 05:32:10 74.81, -27.37 80.25 07/27/2016 05:31:59 74.81, -27.34 80.25 1.04 11
10 07/27/2016 06:21:15 -75.96, 143.47 101.08 07/27/2016 06:22:21 -75.96, 143.47 101.14 0.14 66
11 07/29/2016 20:59:38 -73.47, -82.22 97.66 07/29/2016 20:58:37 -73.46, -82.27 97.59 1.79 61




NCC Satellite Simultaneous Nad
